Mitchell, SD

8:00 PM CST on November 18, 2017 (GMT -0600)
Mitchell Municipal

Weather History for KMHE - November, 2013

Change the Weather History Date:

Sunday, November 10, 2013

  Actual Average Record
Temperature  
Mean Temperature 37 °F 37 °F  
Max Temperature 55 °F 48 °F 80 °F (1912)
Min Temperature 19 °F 27 °F 4 °F (1966)
Degree Days  
Heating Degree Days 28 28  
Month to date heating degree days 249 250  
Since 1 July heating degree days 832 891  
Cooling Degree Days 0 0  
Month to date cooling degree days 0 0  
Year to date cooling degree days 946 824  
Moisture  
Dew Point 29 °F    
Average Humidity 67    
Maximum Humidity 96    
Minimum Humidity 38    
Precipitation  
Precipitation 0.00 in 0.03 in 1.50 in (1998)
Month to date precipitation 0.29 0.38  
Year to date precipitation 25.56 20.67  
Snow  
Snow 0.00 in - 8.00 in (1998)
Month to date snowfall 2.6  
Since 1 July snowfall 2.6  
Since 1 September snowfall 2.6  
Snow Depth 0.00 in    
Sea Level Pressure  
Sea Level Pressure 30.27 in    
Wind  
Wind Speed 9 mph (SSW)    
Max Wind Speed 22 mph    
Max Gust Speed 28 mph    
Visibility 10 miles    
Events      
T = Trace of Precipitation, MM = Missing Value Source: NWS Daily Summary

Daily Weather History Graph

Daily Weather History Graph

Search for Another Location

Airport or City:

Trip Planner

Search our weather history database for the weather conditions in past years. The results will help you decide how hot, cold, wet, or windy it might be!

Date:

Astronomy

Nov. 10, 2013 Rise Set
Actual Time 7:20 AM CST 5:11 PM CST
Civil Twilight 6:49 AM CST 5:41 PM CST
Nautical Twilight 6:15 AM CST 6:16 PM CST
Astronomical Twilight 5:41 AM CST 6:50 PM CST
Moon 1:30 PM CST (11/10) No Moon Set
Length of Visible Light 10h 52m
Length of Day
9h 50m
First Quarter, 56% of the Moon is Illuminated
Nov 10
First Quarter
Nov 17
Full
Nov 25
Last Quarter
Dec 2
New
Dec 9
First Quarter

Hourly Weather History & Observations

Time (CST) Temp. Windchill Dew Point Humidity Pressure Visibility Wind Dir Wind Speed Gust Speed Precip Events Conditions
12:53 AM 26.1 °F 20.5 °F 21.9 °F 84% 30.41 in 10.0 mi West 4.6 mph - N/A   Clear
1:53 AM 27.0 °F 23.0 °F 21.9 °F 81% 30.42 in 10.0 mi WSW 3.5 mph - N/A   Clear
2:53 AM 25.0 °F 20.7 °F 21.0 °F 85% 30.41 in 10.0 mi SSW 3.5 mph - N/A   Clear
3:53 AM 24.1 °F - 19.9 °F 84% 30.39 in 10.0 mi Calm Calm - N/A   Clear
4:53 AM 23.0 °F 17.0 °F 21.0 °F 92% 30.40 in 10.0 mi SW 4.6 mph - N/A   Clear
5:53 AM 26.1 °F 21.9 °F 24.1 °F 92% 30.40 in 10.0 mi SSW 3.5 mph - N/A   Overcast
6:53 AM 26.1 °F - 24.1 °F 92% 30.40 in 10.0 mi Calm Calm - N/A   Overcast
7:53 AM 30.0 °F 25.2 °F 26.1 °F 85% 30.39 in 10.0 mi SSE 4.6 mph - N/A   Overcast
8:53 AM 33.1 °F 25.5 °F 26.1 °F 75% 30.38 in 10.0 mi South 9.2 mph - N/A   Overcast
9:53 AM 35.1 °F 27.9 °F 28.0 °F 76% 30.37 in 10.0 mi SSE 9.2 mph - N/A   Overcast
10:53 AM 37.0 °F 28.9 °F 28.9 °F 73% 30.33 in 10.0 mi SSE 12.7 mph - N/A   Overcast
11:53 AM 41.0 °F 33.1 °F 30.0 °F 65% 30.29 in 10.0 mi South 15.0 mph - N/A   Overcast
12:53 PM 45.0 °F 37.6 °F 30.9 °F 58% 30.22 in 10.0 mi SSE 17.3 mph - N/A   Clear
1:53 PM 52.0 °F - 30.0 °F 43% 30.19 in 10.0 mi SSW 15.0 mph 21.9 mph N/A   Clear
2:53 PM 55.0 °F - 30.9 °F 40% 30.15 in 10.0 mi SW 19.6 mph 26.5 mph N/A   Clear
3:53 PM 54.0 °F - 32.0 °F 43% 30.14 in 10.0 mi SSW 9.2 mph - N/A   Clear
4:53 PM 53.1 °F - 34.0 °F 48% 30.12 in 10.0 mi SSW 6.9 mph - N/A   Clear
5:53 PM 46.9 °F - 33.1 °F 59% 30.12 in 10.0 mi South 6.9 mph - N/A   Clear
6:53 PM 46.9 °F - 35.1 °F 63% 30.12 in 10.0 mi South 5.8 mph - N/A   Clear
7:53 PM 39.9 °F - 34.0 °F 79% 30.12 in 10.0 mi Calm Calm - N/A   Clear
8:53 PM 41.0 °F 38.0 °F 35.1 °F 79% 30.13 in 10.0 mi West 4.6 mph - N/A   Mostly Cloudy
9:53 PM 43.0 °F 35.1 °F 33.1 °F 68% 30.16 in 10.0 mi NNW 17.3 mph - N/A   Clear
10:53 PM 41.0 °F 32.8 °F 32.0 °F 70% 30.18 in 10.0 mi North 16.1 mph 24.2 mph N/A   Mostly Cloudy
11:53 PM 39.0 °F 29.3 °F 30.9 °F 73% 30.19 in 10.0 mi NNW 19.6 mph 25.3 mph N/A   Partly Cloudy